GW1508 Weather Reports


time (UTC)temp
C
wind
direction
speed
KPH
gust
KPH
rain 1hr
cm
rain 24hr
cm
rain mn
cm
humidity
%
barometer
mb
20260902204321 2 95 0.0 0.0 0.00 0.00 0.00 92 1026.3
20260902195826 3 95 0.0 0.0 0.00 0.00 0.00 89 1026.4
20260902194325 4 95 0.0 0.0 0.00 0.00 0.00 87 1026.2
20260902191330 6 95 0.0 0.0 0.00 0.00 0.00 85 1025.8
20260902185825 7 95 0.0 0.0 0.00 0.00 0.00 85 1025.7
20260902182829 10 95 0.0 0.0 0.00 0.00 0.00 84 1025.1
20260902181331 11 95 0.0 0.0 0.00 0.00 0.00 89 1024.9
20260902175823 12 95 0.0 1.6 0.00 0.00 0.00 93 1024.8
20260902174316 12 96 0.0 0.0 0.00 0.00 0.00 92 1024.8
20260902171326 13 96 0.0 0.0 0.00 0.00 0.00 89 1024.7
20260902165825 14 96 0.0 3.2 0.00 0.00 0.00 88 1024.8
20260902161329 15 64 0.0 1.6 0.00 0.00 0.00 86 1024.6
20260902155825 15 69 0.0 3.2 0.00 0.00 0.00 86 1024.5
20260902154324 15 27 0.0 1.6 0.00 0.00 0.00 86 1024.5
20260902151329 14 66 0.0 3.2 0.00 0.00 0.00 87 1024.7
20260902145821 14 73 0.0 3.2 0.00 0.00 0.00 86 1024.8
20260902144314 15 74 0.0 8.0 0.00 0.00 0.00 83 1024.9
20260902141326 16 96 4.8 16.1 0.00 0.00 0.00 79 1025.0
20260902135824 16 74 6.4 12.9 0.00 0.00 0.00 80 1025.0
20260902134319 16 17 1.6 12.9 0.00 0.00 0.00 82 1025.2
20260902131326 16 260 0.0 12.9 0.00 0.00 0.00 83 1025.3
20260902125825 16 25 1.6 11.3 0.00 0.00 0.00 83 1025.2
20260902122833 16 49 4.8 9.7 0.00 0.00 0.00 80 1025.4
20260902121324 16 5 3.2 11.3 0.00 0.00 0.00 81 1025.4
20260902115817 16 65 1.6 11.3 0.00 0.00 0.00 81 1025.6
20260902114317 16 99 0.0 12.9 0.00 0.00 0.00 82 1025.7
20260902111324 15 74 1.6 8.0 0.00 0.00 0.00 85 1026.0
20260902105819 16 88 3.2 11.3 0.00 0.00 0.00 82 1026.0
20260902102824 15 282 0.0 8.0 0.00 0.00 0.00 86 1026.4
20260902101316 15 23 3.2 9.7 0.00 0.00 0.00 84 1026.5
20260902095815 15 103 0.0 9.7 0.00 0.00 0.00 86 1026.8
20260902092839 15 113 0.0 6.4 0.00 0.00 0.00 86 1026.4
20260902091318 15 111 0.0 6.4 0.00 0.00 0.00 85 1026.6
20260902084325 14 150 0.0 1.6 0.00 0.00 0.00 88 1026.7
20260902082817 14 169 0.0 1.6 0.00 0.00 0.00 88 1026.6
20260902075824 14 84 0.0 9.7 0.00 0.00 0.00 86 1026.3
20260902074322 14 155 0.0 8.0 0.00 0.00 0.00 86 1026.3
20260902071320 14 163 0.0 1.6 0.00 0.00 0.00 89 1026.3
20260902064324 12 134 1.6 8.0 0.00 0.00 0.00 94 1026.3
20260902062825 11 94 0.0 3.2 0.00 0.00 0.00 93 1026.5
20260902061313 5 81 0.0 6.4 0.00 0.00 0.00 94 1026.8
20260902054321 -1 15 0.0 0.0 0.00 0.00 0.00 94 1026.4
20260902052819 -1 15 0.0 0.0 0.00 0.00 0.00 95 1026.1
20260902045823 -1 15 0.0 0.0 0.00 0.00 0.00 95 1025.9
20260902044318 -1 15 0.0 0.0 0.00 0.00 0.00 95 1025.7
20260902041325 -1 15 0.0 0.0 0.00 0.00 0.00 95 1025.7
20260902035819 -1 15 0.0 0.0 0.00 0.00 0.00 95 1025.7
20260902034312 -1 15 0.0 0.0 0.00 0.00 0.00 95 1025.9
20260902032809 -1 15 0.0 0.0 0.00 0.00 0.00 95 1025.8
20260902025818 0 15 0.0 0.0 0.00 0.00 0.00 95 1026.1
20260902024312 0 15 0.0 0.0 0.00 0.00 0.00 95 1026.2
20260902022807 0 15 0.0 0.0 0.00 0.00 0.00 95 1026.1
20260902015820 0 15 0.0 0.0 0.00 0.00 0.00 95 1026.0
20260902014316 0 15 0.0 0.0 0.00 0.00 0.00 94 1025.9
20260902012812 0 15 0.0 0.0 0.00 0.00 0.00 94 1025.9
20260902005823 0 15 0.0 0.0 0.00 0.00 0.00 95 1026.0
20260902004320 0 15 0.0 0.0 0.00 0.00 0.00 95 1026.1
20260902001324 0 15 0.0 0.0 0.00 0.00 0.00 95 1026.1
20260901235815 0 15 0.0 0.0 0.00 0.00 0.00 95 1026.2
20260901232824 0 15 0.0 0.0 0.00 0.00 0.00 94 1026.0
20260901231318 0 15 0.0 0.0 0.00 0.00 0.00 94 1025.8
20260901225812 0 15 0.0 0.0 0.00 0.00 0.00 94 1025.6
20260901222820 1 15 0.0 0.0 0.00 0.00 0.00 94 1025.5
20260901215834 2 15 0.0 0.0 0.00 0.00 0.00 94 1025.3
20260901214321 2 15 0.0 0.0 0.00 0.00 0.00 94 1025.3
20260901212817 2 15 0.0 0.0 0.00 0.00 0.00 94 1025.0
20260901205825 3 15 0.0 0.0 0.00 0.00 0.00 94 1024.7